Kingston, Jamaica

3:02 AM EST on February 18, 2018 (GMT -0500)
Norman Manley International

Weather History for MKJP - January, 2014

Change the Weather History Date:

Wednesday, January 29, 2014

  Actual Average Record
Temperature  
Mean Temperature 82 °F -  
Max Temperature 88 °F 84 °F 90 °F (2018)
Min Temperature 77 °F 74 °F 71 °F (2008)
Cooling Degree Days 18    
Growing Degree Days 32 (Base 50)    
Moisture  
Dew Point 72 °F    
Average Humidity 71    
Maximum Humidity 94    
Minimum Humidity 55    
Precipitation  
Precipitation 0.00 in - - ()
Sea Level Pressure  
Sea Level Pressure 29.96 in    
Wind  
Wind Speed 14 mph ()    
Max Wind Speed 26 mph    
Max Gust Speed -    
Visibility 8.2 miles    
Events Rain    
Averages and records for this station are not official NWS values.
T = Trace of Precipitation, MM = Missing Value Source: Averaged Metar Reports

Daily Weather History Graph

Daily Weather History Graph

Search for Another Location

Airport or City:

Trip Planner

Search our weather history database for the weather conditions in past years. The results will help you decide how hot, cold, wet, or windy it might be!

Date:

Astronomy

Jan. 29, 2014 Rise Set
Actual Time 6:40 AM EST 6:00 PM EST
Civil Twilight 6:17 AM EST 6:23 PM EST
Nautical Twilight 5:51 AM EST 6:49 PM EST
Astronomical Twilight 5:25 AM EST 7:15 PM EST
Moon 5:13 AM EST (1/29) 4:56 PM EST (1/29)
Length of Visible Light 12h 05m
Length of Day
11h 19m
Waning Crescent, 2% of the Moon is Illuminated
Jan 29
Waning Crescent
Jan 30
New
Feb 6
First Quarter
Feb 14
Full
Feb 22
Last Quarter

Hourly Weather History & Observations

Time (EST) Temp. Heat Index Dew Point Humidity Pressure Visibility Wind Dir Wind Speed Gust Speed Precip Events Conditions
12:00 AM 80.6 °F 84.6 °F 71.6 °F 74% 29.98 in 6.2 mi ESE 12.7 mph - N/A   Partly Cloudy
1:00 AM 80 °F - 74 °F 76% 29.98 in 12 mi East 11.5 mph - - Rain Light Rain
1:00 AM 80.6 °F 85.4 °F 73.4 °F 79% 29.98 in 6.2 mi East 11.5 mph - N/A Rain Light Rain
2:00 AM 78.8 °F - 73.4 °F 83% 29.95 in 6.2 mi SE 13.8 mph - N/A   Partly Cloudy
3:00 AM 78.8 °F - 73.4 °F 83% 29.92 in 6.2 mi SE 16.1 mph - N/A   Scattered Clouds
4:00 AM 79 °F - 72 °F 73% 29.93 in 12 mi ESE 12.7 mph - -   Scattered Clouds
4:00 AM 78.8 °F - 71.6 °F 78% 29.92 in 6.2 mi ESE 12.7 mph - N/A   Partly Cloudy
5:00 AM 77.0 °F - 75.2 °F 94% 29.92 in 6.2 mi SE 11.5 mph - N/A   Partly Cloudy
6:00 AM 77.0 °F - 75.2 °F 94% 29.95 in 6.2 mi SE 15.0 mph - N/A   Scattered Clouds
7:00 AM 79 °F - 71 °F 69% 29.98 in 14 mi ESE 12.7 mph - -   Mostly Cloudy
7:00 AM 78.8 °F - 71.6 °F 78% 29.98 in 6.2 mi ESE 12.7 mph - N/A   Scattered Clouds
8:00 AM 80.6 °F 85.4 °F 73.4 °F 79% 29.98 in 6.2 mi ESE 12.7 mph - N/A   Partly Cloudy
9:00 AM 80.6 °F 85.4 °F 73.4 °F 79% 30.01 in 6.2 mi ESE 15.0 mph - N/A   Scattered Clouds
10:00 AM 83 °F - 74 °F 68% 30.02 in 14 mi ESE 16.1 mph - -   Haze
10:00 AM 84.2 °F 90.9 °F 73.4 °F 70% 30.01 in 6.2 mi ESE 16.1 mph - N/A   Partly Cloudy
11:00 AM 84.2 °F 90.9 °F 73.4 °F 70% 29.98 in 6.2 mi SE 24.2 mph - N/A   Partly Cloudy
12:00 PM 86.0 °F 91.8 °F 71.6 °F 62% 29.98 in 6.2 mi SE 24.2 mph - N/A   Partly Cloudy
1:00 PM 87 °F - 73 °F 55% 29.96 in 14 mi ESE 23.0 mph - -   Partly Cloudy
1:00 PM 86.0 °F 93.4 °F 73.4 °F 66% 29.95 in 6.2 mi ESE 23.0 mph - N/A   Scattered Clouds
2:00 PM 86.0 °F 90.4 °F 69.8 °F 58% 29.92 in 6.2 mi SE 26.5 mph - N/A   Partly Cloudy
3:00 PM 86.0 °F 91.8 °F 71.6 °F 62% 29.92 in 6.2 mi ESE 24.2 mph - N/A   Partly Cloudy
4:00 PM 84 °F - 70 °F 55% 29.93 in 16 mi SE 21.9 mph - -   Haze
4:00 PM 84.2 °F 88.4 °F 69.8 °F 62% 29.92 in 6.2 mi SE 21.9 mph - N/A   Partly Cloudy
5:00 PM 84.2 °F 89.6 °F 71.6 °F 66% 29.92 in 6.2 mi SE 23.0 mph - N/A   Partly Cloudy
6:00 PM 80.6 °F 83.9 °F 69.8 °F 70% 29.95 in 6.2 mi ESE 16.1 mph - N/A   Partly Cloudy
7:00 PM 81 °F - 71 °F 63% 29.95 in 16 mi ESE 15.0 mph - -   Haze
7:00 PM 80.6 °F 83.9 °F 69.8 °F 70% 29.95 in 6.2 mi ESE 15.0 mph - N/A   Partly Cloudy
8:00 PM 80.6 °F 83.9 °F 69.8 °F 70% 29.95 in 6.2 mi ESE 16.1 mph - N/A   Partly Cloudy
9:00 PM 80.6 °F 83.9 °F 69.8 °F 70% 29.98 in 6.2 mi East 15.0 mph - N/A   Partly Cloudy
10:00 PM 80 °F - 70 °F 64% 29.98 in 16 mi ESE 16.1 mph - -   Haze
10:00 PM 80.6 °F 83.9 °F 69.8 °F 70% 29.98 in 6.2 mi ESE 16.1 mph - N/A   Partly Cloudy
11:00 PM 80.6 °F 83.9 °F 69.8 °F 70% 29.98 in 6.2 mi ESE 18.4 mph - N/A   Partly Cloudy